Simultaneous Nadir Overpasses (SNOs) Predictions

Prediction of SNOs between AQUA and GOES-15 Satellite Orbit:

Table of predicted SNOs for the next 14.0 days since TLE Epoch: 11/16/2019
Index Date Time (AQUA) AQUA Lat,Lon GOES-15 Lat,Lon Distance(km) Time Diff (sec)
1 11/17/2019 10:00:53 -0.34,-126.43 0.08,-128.53 238.24 80
2 11/17/2019 22:22:17 -0.74,-131.62 -0.06,-128.49 356.92 80
3 11/19/2019 22:10:06 -0.08,-128.67 -0.06,-128.47 22.38 80
4 11/21/2019 21:57:54 0.53,-125.71 -0.06,-128.45 312.29 80
5 11/22/2019 10:19:11 0.52,-130.88 0.04,-128.49 270.92 80
6 11/24/2019 10:06:59 -0.09,-127.92 0.04,-128.47 63.28 80
7 11/26/2019 09:54:47 -0.70,-124.95 0.05,-128.44 397.03 80
8 11/26/2019 22:16:09 -0.42,-130.14 -0.03,-128.39 198.67 80
9 11/28/2019 22:03:57 0.19,-127.18 -0.04,-128.36 134.48 80
10 11/29/2019 10:25:14 0.85,-132.35 0.02,-128.40 448.90 80




NCC Satellite Simultaneous Nadir Overpasses (SNOs) Prediction Service
